Temperature
16 16 15 15 15 15 15 15 15 15 15 15 15 15 15 15 15 15 15 15 15 15 15 15 15 15 15 15 15 15 15 15 15 15 15 15 15 15 15 15 15 15 15
15 15 15 15 15 15 15 15 15 15 15 15 15 15 15 15 15 15 15 15 15 15 15 15 15 15 15 15 15 15 15 15 15 15 15 15 15 15 15 15 15 15 15
15 15 15 15 15 15 15 15 15 15 14 14 14 14 14 14 14 15 14 14 14 15 15 15 15 15 15 15 15 15 15 15 15 15 15 15 15 15 14 14 14 15 15
15 15 15 15 15 15 15 15 15 14 14 14 14 14 14 14 14 14 14 14 14 14 14 15 15 15 14 14 15 14 14 14 14 14 14 14 14 14 14 14 14 14 14
15 15 15 15 15 15 15 14 14 14 14 14 14 14 14 14 14 14 14 14 14 14 14 14 14 14 14 14 14 14 14 14 14 14 14 14 14 14 14 14 14 14 14
14 14 14 14 14 14 14 14 14 14 14 14 14 14 14 14 14 14 14 14 14 14 14 14 14 14 14 14 14 14 14 14 14 14 14 14 14 14 14 14 14 14 14
14 14 14 14 14 14 14 14 14 14 14 14 14 14 14 14 14 13 13 13 13 13 13 13 13 13 13 14 14 14 14 13 13 13 13 13 14 14 13 14 13 14 14
14 14 14 14 14 14 14 14 14 14 14 14 14 14 14 14 13 13 13 13 13 13 13 13 13 13 13 13 13 14 13 13 13 13 13 13 13 13 13 13 13 13 13
14 14 14 14 14 14 14 14 14 14 14 14 14 14 15 15 14 13 13 13 13 13 13 13 13 13 13 13 13 13 13 13 13 13 13 13 13 13 13 13 13 13 13
14 14 14 14 14 14 14 14 14 14 14 13 14 14 14 14 14 14 13 13 13 13 13 13 13 13 12 12 13 13 13 13 13 13 13 13 13 13 13 13 13 13 13
14 14 14 14 14 14 14 14 14 14 13 13 13 13 13 13 14 14 14 13 13 13 13 12 12 12 12 12 12 13 13 13 13 13 13 13 12 12 12 12 12 12 12
14 14 14 14 14 13 13 13 13 13 13 13 13 13 13 13 13 14 14 13 13 13 12 12 12 12 12 12 12 12 13 13 13 13 12 12 12 12 12 12 12 12 12
14 14 14 13 13 13 13 13 13 13 13 13 13 13 13 13 13 13 13 13 13 12 12 12 12 12 12 12 12 12 12 12 12 12 12 12 12 12 12 12 12 12 12
14 14 13 13 13 13 13 13 13 13 13 13 13 13 13 13 13 13 13 13 13 13 12 12 12 12 12 12 12 12 12 12 12 12 12 12 12 12 12 12 12 12 12
14 13 13 13 13 13 13 13 13 13 13 13 13 13 13 13 12 12 12 12 13 13 13 12 11 12 12 12 12 11 11 12 12 12 12 12 12 12 12 12 12 12 12
14 13 13 13 13 13 13 13 12 13 12 13 13 12 12 12 12 12 12 12 12 12 12 12 11 11 11 11 11 11 11 11 11 12 12 12 11 11 11 11 11 11 11
13 13 13 13 13 13 13 13 12 12 12 12 12 12 12 12 12 12 12 12 12 12 12 12 11 11 11 11 11 11 11 10 11 11 11 11 11 11 11 11 11 11 11
13 13 13 13 13 13 12 12 12 12 12 12 12 12 12 12 12 12 12 12 12 11 11 11 11 11 11 11 11 11 10 10 10 11 11 11 11 11 11 11 11 11 11
13 13 13 13 13 13 12 12 12 12 12 12 12 12 12 12 12 12 11 11 11 11 11 11 11 11 11 10 10 10 10 10 10 10 10 11 11 10 11 11 11 11 11
13 13 13 13 13 12 12 12 12 12 12 12 12 12 12 11 11 11 11 11 11 11 11 11 11 10 10 10 10 10 10 10 10 10 10 10 10 10 10 10 10 10 10
13 13 13 13 13 12 12 12 12 12 12 12 12 12 12 12 12 11 11 11 11 11 10 10 10 10 10 10 10 10 10 10 10 10 10 10 10 10 10 10 10 10 10
13 13 13 12 12 12 12 12 12 12 12 12 12 12 11 11 11 11 11 11 11 10 10 10 10 10 10 10 10 10 9 9 9 10 10 10 10 9 9 9 10 10 10
13 13 12 12 12 12 12 12 12 12 11 11 11 11 11 11 11 11 11 11 11 11 10 10 10 10 10 10 10 9 9 9 9 9 10 9 9 9 9 9 9 10 10
12 12 12 12 12 12 12 12 12 11 11 11 11 11 11 11 11 11 10 10 10 10 10 10 10 10 9 10 9 9 9 9 9 9 9 9 9 9 9 9 9 9 9
12 12 12 12 12 12 12 12 12 11 11 11 11 11 10 10 11 10 10 10 10 10 10 10 10 10 10 10 9 9 9 8 8 8 9 9 8 9 9 9 9 9 9
12 12 12 12 12 12 12 12 11 11 11 11 11 11 11 10 10 10 10 10 9 9 9 9 9 9 9 9 9 9 8 8 8 8 8 8 8 8 8 8 8 8 8
Wind_Speed
4 4 4 4 5 5 5 5 5 6 6 7 7 7 7 7 7 7 8 13 12 12 11 11 11 10 9 9 9 9 8 8 7 7 7 7 6 6 6 6 5 5 5
4 3 4 4 4 5 5 5 6 5 5 6 6 7 6 6 7 7 7 9 12 11 11 10 10 9 9 9 9 8 8 7 7 7 7 8 7 7 7 7 6 6 6
4 3 3 4 4 5 5 5 6 5 5 5 6 6 6 6 6 6 6 6 7 10 11 11 10 10 8 7 8 8 8 8 7 7 7 7 8 8 8 7 8 8 8
4 4 3 3 4 4 4 4 4 4 4 4 5 4 4 4 5 5 5 5 6 6 9 11 10 10 9 8 8 8 7 7 7 7 7 7 7 8 8 8 8 7 7
3 3 3 3 4 4 3 3 4 4 4 5 4 4 3 3 4 4 5 6 5 5 6 8 9 10 9 9 8 8 7 7 6 6 6 6 6 7 7 7 7 6 6
3 3 3 4 4 3 3 3 4 4 3 4 4 3 3 3 3 4 4 4 4 5 5 5 5 8 9 9 7 7 7 6 6 5 6 6 6 6 6 6 6 6 6
3 3 2 3 3 3 3 4 4 4 3 2 2 3 3 3 3 3 3 3 4 4 4 5 5 4 5 7 8 7 6 5 5 5 5 5 5 5 5 5 6 6 6
2 2 2 2 2 2 3 3 3 2 2 2 1 1 2 2 2 2 1 1 2 3 3 4 4 4 4 4 7 7 6 5 5 5 5 6 6 6 6 5 5 6 5
2 2 2 2 2 2 3 3 3 3 2 1 1 2 1 1 2 2 2 1 1 1 1 2 3 3 3 4 4 6 6 5 5 5 5 5 5 5 5 6 5 5 6
2 2 2 2 2 2 2 3 3 3 3 2 1 1 1 0 1 1 2 1 1 1 1 1 1 2 2 3 5 6 6 6 5 5 4 4 4 5 5 5 5 5 5
3 3 2 2 2 2 2 3 3 3 3 2 2 1 1 1 2 2 1 1 2 1 0 0 0 1 1 2 3 5 5 5 5 5 4 4 4 4 4 5 5 4 4
3 3 3 3 3 2 2 2 3 3 3 2 2 2 2 1 2 2 2 2 1 1 1 0 0 0 0 1 2 5 5 4 4 4 4 4 3 3 3 3 3 3 2
3 3 3 3 3 3 2 2 3 3 3 3 3 2 2 2 2 2 2 2 2 2 2 2 1 1 1 1 1 3 3 2 2 2 2 2 2 2 2 1 2 2 1
3 4 4 3 3 3 3 3 3 3 3 3 3 3 2 2 2 2 2 2 3 2 2 2 2 2 2 2 1 3 3 3 1 1 1 1 1 1 1 1 1 1 1
4 4 4 4 4 4 4 4 3 3 3 3 3 3 2 2 2 2 2 3 3 3 2 2 2 2 2 2 2 3 2 3 3 2 2 2 1 1 1 1 1 1 1
5 5 5 5 4 4 5 4 4 3 3 3 2 3 3 2 2 2 2 2 3 4 2 1 1 2 2 3 2 3 2 4 3 3 2 2 1 2 1 1 1 1 0
6 5 5 5 5 5 5 5 5 5 5 4 4 4 4 3 2 2 2 3 3 3 3 2 2 2 3 3 2 3 3 3 3 4 4 3 3 2 3 3 2 2 2
6 6 6 5 5 5 5 5 5 5 5 5 5 5 4 3 4 3 3 4 3 3 4 4 3 3 3 3 3 3 3 3 3 4 5 4 4 4 4 4 4 3 3
7 6 6 6 6 6 6 6 6 6 6 6 5 5 5 5 5 4 4 4 3 3 3 4 4 3 3 3 3 3 4 3 3 4 5 5 5 5 5 5 4 4 4
7 7 7 7 7 6 7 7 7 6 6 6 6 6 6 6 6 5 4 5 4 4 4 4 4 4 4 4 4 4 4 3 3 4 4 5 6 7 7 6 5 5 4
7 7 7 7 7 6 6 7 7 6 6 6 6 6 5 4 3 4 4 5 5 4 4 5 5 5 4 4 4 4 4 3 3 3 4 4 5 5 6 7 7 6 6
6 6 7 7 7 6 5 5 7 7 7 7 6 6 5 6 6 7 6 6 6 6 6 5 5 6 6 5 4 4 4 4 4 2 4 4 4 4 4 5 6 7 7
6 6 6 7 7 6 6 7 8 8 7 7 7 6 5 5 6 7 8 9 8 8 8 8 7 7 6 6 6 6 5 5 4 2 3 4 3 4 4 4 5 7 7
5 6 6 6 6 5 7 8 8 8 7 7 7 7 7 6 6 6 6 6 6 6 7 8 7 7 6 5 5 5 5 5 5 2 3 4 3 4 3 4 6 7 7
6 6 6 6 6 5 6 7 7 6 7 7 7 6 7 7 4 5 6 6 6 5 4 5 5 5 3 3 4 4 5 5 5 4 3 3 3 3 3 3 4 7 7
5 5 5 5 6 5 5 7 8 5 6 6 5 6 5 6 4 6 7 7 7 6 5 5 5 6 6 6 7 7 6 6 5 4 3 3 3 3 3 3 2 3 4
Wind_Direction
88 88 90 88 85 88 94 92 90 86 81 74 68 66 67 69 68 72 72 64 62 64 65 65 68 69 70 75 78 79 80 78 76 76 75 72 72 71 75 85 86 84 86
95 95 93 89 86 87 90 96 95 92 87 79 71 65 61 64 67 71 76 78 70 64 62 62 64 63 64 68 74 78 79 78 73 71 71 70 70 69 71 76 76 77 76
100 101 102 102 99 102 102 97 95 92 93 92 81 71 65 62 66 65 64 67 76 74 66 61 60 60 63 66 68 72 76 76 74 71 72 70 70 72 70 70 70 73 73
102 104 106 106 111 114 113 109 105 102 98 92 82 72 71 69 68 66 69 69 62 65 72 65 59 57 58 64 66 67 67 72 74 72 73 75 74 73 69 70 71 74 75
106 103 103 113 120 119 121 119 113 108 102 97 88 74 63 65 64 66 72 69 66 61 68 77 70 59 55 63 70 69 67 67 71 75 73 75 75 77 73 69 73 74 78
102 107 117 120 126 127 128 129 124 114 107 107 97 80 65 74 71 60 65 70 66 61 60 64 74 74 63 58 66 76 75 71 66 69 73 76 79 78 76 71 73 78 81
108 115 129 131 139 138 145 147 138 131 126 126 124 110 98 84 75 73 61 65 72 63 66 66 62 64 77 77 64 68 74 73 70 68 67 72 78 75 70 68 72 79 80
113 123 143 143 148 150 160 159 154 152 143 180 203 189 164 148 117 96 80 70 73 78 67 64 65 64 57 71 73 67 63 63 71 77 71 68 70 70 64 70 74 74 79
139 145 142 145 156 170 173 178 176 184 178 187 267 268 247 149 136 135 102 99 80 65 70 60 62 64 65 67 80 77 61 59 70 82 78 72 71 69 64 64 69 74 73
159 164 172 175 172 171 176 188 190 198 202 190 187 288 315 326 250 165 152 127 113 76 39 55 43 57 65 73 72 67 66 59 66 82 84 76 73 71 65 60 61 73 72
179 183 192 197 194 190 191 190 195 211 218 218 211 194 185 221 255 261 221 191 172 156 165 316 52 34 54 72 74 76 76 66 63 68 72 77 79 79 68 64 59 67 75
191 193 203 210 207 202 201 202 203 213 227 223 228 225 230 244 245 254 250 227 217 181 189 196 243 95 69 90 85 82 84 75 71 68 67 65 69 75 69 65 57 52 74
202 199 208 214 214 211 208 205 209 214 219 226 235 245 249 263 264 269 260 256 246 213 213 198 192 197 196 189 131 129 117 98 80 74 74 75 72 67 55 58 57 46 75
208 203 212 217 213 212 210 208 223 225 229 227 236 242 247 254 252 249 252 255 252 226 218 210 184 201 199 199 166 197 161 146 147 132 138 152 133 117 97 105 77 44 48
212 214 213 219 217 217 220 218 221 220 225 227 225 225 231 234 233 244 240 248 266 264 238 218 209 204 205 201 209 211 209 156 181 190 175 176 184 169 147 124 97 36 29
213 215 218 221 222 218 215 219 227 228 219 214 220 224 225 223 222 224 234 250 263 271 263 224 231 209 205 213 210 230 217 168 176 196 201 200 205 212 202 205 214 260 273
216 219 223 227 226 220 216 212 219 218 218 212 209 211 215 218 220 221 223 234 245 253 250 250 245 226 218 231 208 228 226 216 193 189 202 214 220 223 226 225 222 224 218
221 226 226 230 228 224 222 218 215 216 217 219 218 217 220 212 221 226 227 230 230 240 244 248 240 229 234 236 237 236 232 229 229 178 194 211 220 226 230 226 225 224 220
223 224 226 229 227 224 220 222 221 218 218 223 226 226 227 221 223 224 230 238 236 232 239 242 241 234 236 234 236 236 231 233 239 204 199 210 218 225 227 224 225 221 218
227 228 227 228 228 225 222 221 221 224 225 227 231 231 234 233 234 232 232 237 234 227 230 234 239 237 234 230 233 239 236 228 237 228 225 227 218 218 220 219 219 217 219
231 231 231 230 226 225 226 223 220 225 229 231 233 233 235 244 274 255 247 237 231 231 228 233 239 241 236 229 234 238 245 248 240 234 242 235 226 228 219 215 216 221 223
228 229 231 231 227 225 208 223 235 227 231 232 234 234 228 223 220 220 235 247 253 242 240 240 244 243 242 239 240 241 244 247 247 223 246 247 234 239 238 233 208 210 218
225 227 229 229 229 220 192 207 228 236 236 237 236 235 233 232 227 231 218 216 230 240 250 253 252 252 247 240 236 238 239 246 257 229 235 245 241 248 242 228 200 209 219
223 225 228 228 231 224 197 206 217 230 237 238 238 238 236 235 233 237 236 232 236 234 232 239 246 252 251 248 242 241 244 249 252 230 227 250 249 256 252 230 192 203 215
226 227 229 228 227 222 198 202 215 227 232 235 236 239 244 243 218 225 233 236 237 236 219 229 259 263 276 261 242 230 228 230 240 234 224 249 260 265 251 233 200 194 207
221 224 226 228 225 227 195 197 216 227 231 233 235 234 237 243 221 218 228 234 240 240 232 220 219 220 225 215 211 225 232 232 239 239 216 233 244 254 255 229 224 218 218
Height
1542 1542 1542 1542 1543 1543 1543 1543 1543 1544 1544 1544 1545 1545 1545 1546 1546 1545 1545 1544 1544 1544 1543 1543 1543 1542 1542 1542 1541 1541 1541 1541 1541 1541 1540 1540 1540 1540 1540 1540 1540 1540 1540
1543 1543 1543 1543 1543 1544 1544 1545 1545 1545 1545 1545 1545 1546 1546 1546 1547 1547 1547 1546 1545 1545 1544 1544 1544 1543 1543 1542 1542 1542 1542 1541 1541 1541 1540 1540 1540 1540 1540 1540 1540 1540 1540
1543 1544 1544 1544 1544 1545 1545 1545 1546 1546 1546 1546 1546 1547 1547 1547 1547 1547 1547 1547 1547 1546 1545 1545 1544 1544 1543 1543 1543 1542 1542 1542 1541 1541 1541 1540 1540 1540 1540 1540 1540 1539 1540
1544 1544 1544 1545 1545 1545 1546 1546 1546 1546 1547 1547 1548 1548 1548 1548 1548 1548 1548 1548 1547 1547 1546 1545 1545 1544 1544 1543 1543 1543 1542 1542 1542 1541 1541 1540 1540 1540 1540 1540 1539 1539 1539
1544 1544 1544 1545 1545 1546 1546 1547 1547 1547 1548 1548 1548 1548 1549 1548 1548 1548 1549 1548 1548 1547 1547 1546 1545 1545 1544 1544 1543 1543 1542 1542 1542 1542 1541 1541 1541 1541 1540 1540 1540 1539 1539
1544 1544 1544 1545 1545 1546 1546 1547 1547 1547 1548 1548 1549 1549 1549 1549 1549 1549 1548 1548 1548 1548 1547 1547 1546 1545 1544 1544 1543 1543 1542 1542 1542 1542 1542 1541 1541 1541 1540 1540 1539 1539 1539
1544 1544 1545 1545 1545 1546 1546 1547 1547 1548 1548 1549 1549 1550 1550 1549 1549 1548 1549 1549 1548 1548 1547 1547 1546 1546 1545 1544 1543 1543 1543 1542 1542 1542 1542 1542 1541 1541 1541 1540 1539 1539 1539
1544 1544 1545 1545 1545 1545 1546 1546 1547 1547 1548 1548 1549 1550 1550 1551 1549 1549 1549 1548 1549 1548 1547 1547 1546 1546 1545 1545 1544 1543 1543 1542 1542 1542 1542 1541 1541 1541 1540 1540 1539 1539 1539
1543 1544 1544 1544 1544 1545 1545 1545 1546 1547 1547 1548 1548 1550 1550 1549 1550 1550 1549 1548 1548 1548 1547 1547 1546 1546 1545 1545 1544 1543 1543 1542 1542 1542 1541 1541 1541 1541 1541 1540 1540 1539 1539
1543 1543 1543 1544 1544 1544 1544 1545 1545 1546 1546 1547 1547 1547 1548 1548 1549 1549 1549 1548 1547 1547 1547 1546 1546 1545 1545 1544 1543 1542 1542 1542 1542 1541 1541 1541 1541 1541 1541 1540 1540 1539 1539
1542 1542 1542 1543 1543 1543 1543 1544 1544 1545 1545 1546 1546 1546 1547 1547 1547 1548 1548 1548 1547 1546 1546 1545 1545 1544 1544 1543 1542 1542 1541 1541 1541 1541 1541 1541 1540 1540 1540 1540 1539 1539 1539
1541 1541 1541 1541 1542 1542 1542 1543 1543 1543 1544 1544 1545 1545 1546 1546 1546 1546 1546 1546 1546 1545 1544 1543 1543 1543 1542 1542 1541 1541 1541 1540 1540 1540 1540 1540 1540 1540 1539 1539 1539 1538 1538
1540 1540 1540 1540 1540 1541 1541 1541 1542 1542 1543 1543 1543 1544 1544 1544 1544 1545 1545 1544 1544 1544 1543 1542 1542 1541 1541 1541 1540 1540 1539 1539 1539 1539 1539 1539 1539 1538 1538 1538 1538 1537 1537
1539 1539 1538 1539 1539 1539 1539 1540 1540 1540 1541 1541 1541 1542 1542 1542 1542 1542 1543 1543 1542 1542 1542 1542 1540 1540 1539 1539 1539 1538 1538 1538 1538 1538 1537 1537 1537 1537 1537 1537 1536 1536 1536
1537 1537 1537 1537 1537 1537 1537 1538 1538 1538 1539 1539 1539 1539 1539 1540 1540 1540 1540 1541 1542 1541 1540 1540 1539 1538 1538 1537 1537 1537 1537 1536 1536 1536 1536 1535 1535 1535 1535 1535 1535 1535 1534
1535 1535 1535 1535 1535 1535 1535 1536 1536 1536 1537 1536 1537 1537 1537 1537 1537 1537 1538 1538 1538 1539 1539 1538 1537 1536 1536 1536 1535 1535 1535 1534 1534 1534 1534 1533 1533 1533 1533 1533 1533 1533 1533
1532 1533 1533 1533 1533 1533 1533 1533 1534 1534 1534 1534 1534 1535 1535 1535 1535 1535 1535 1536 1536 1536 1536 1535 1535 1534 1534 1534 1533 1533 1533 1532 1532 1532 1531 1531 1531 1531 1531 1531 1531 1531 1531
1530 1530 1530 1530 1530 1530 1531 1531 1531 1531 1531 1532 1532 1532 1533 1533 1533 1533 1533 1533 1533 1533 1534 1533 1533 1532 1532 1532 1531 1531 1530 1530 1530 1529 1529 1529 1529 1529 1529 1529 1529 1529 1529
1526 1527 1527 1527 1527 1527 1528 1528 1528 1529 1529 1529 1529 1530 1530 1530 1530 1530 1530 1530 1530 1530 1530 1530 1530 1529 1529 1529 1529 1528 1528 1528 1528 1527 1527 1526 1526 1526 1526 1526 1526 1526 1526
1523 1523 1524 1524 1524 1524 1525 1525 1525 1526 1526 1526 1527 1527 1527 1527 1527 1527 1527 1527 1527 1527 1527 1527 1527 1527 1526 1526 1526 1526 1526 1525 1525 1525 1524 1524 1524 1523 1523 1523 1523 1524 1524
1519 1519 1520 1520 1520 1521 1521 1522 1522 1523 1523 1524 1524 1524 1524 1524 1524 1524 1524 1524 1524 1524 1524 1524 1524 1524 1523 1523 1523 1523 1523 1523 1522 1522 1521 1521 1521 1521 1521 1520 1520 1520 1521
1515 1515 1516 1516 1516 1516 1517 1518 1519 1520 1520 1520 1520 1520 1520 1520 1520 1520 1520 1520 1520 1521 1521 1521 1520 1520 1520 1520 1520 1520 1520 1520 1520 1519 1519 1519 1518 1518 1518 1518 1517 1517 1518
1511 1511 1512 1512 1512 1513 1513 1514 1515 1516 1516 1517 1517 1517 1517 1516 1516 1516 1516 1516 1516 1516 1516 1517 1517 1516 1516 1516 1516 1516 1516 1516 1517 1516 1516 1516 1516 1515 1515 1514 1514 1514 1514
1507 1507 1508 1508 1508 1509 1509 1510 1511 1512 1512 1512 1513 1513 1513 1513 1512 1512 1513 1512 1512 1512 1511 1511 1511 1511 1512 1512 1512 1513 1513 1513 1513 1512 1512 1513 1512 1512 1512 1511 1511 1511 1511
1503 1503 1504 1504 1504 1505 1505 1506 1507 1507 1508 1508 1508 1509 1509 1509 1508 1508 1509 1508 1508 1507 1507 1507 1507 1507 1507 1507 1508 1508 1508 1509 1509 1509 1509 1509 1509 1508 1508 1508 1508 1507 1507
1499 1499 1499 1500 1500 1501 1501 1502 1503 1503 1503 1504 1504 1504 1504 1504 1504 1504 1504 1504 1504 1504 1504 1503 1503 1502 1502 1502 1503 1504 1504 1505 1505 1506 1505 1505 1505 1505 1506 1505 1505 1504 1504